Location: Newark
(25.0000°N, 73.5000°E)
Time: 11:07:56
(UTC+00:00)

Tiros 1 - All Passes

Search period start: 01 March 2021 00:00
Search period end: 11 March 2021 00:00
Orbit: 630 x 664 km, 48.4° (Epoch: 01 March)

Date Brightness Start Highest point End Pass type
(mag) Time Alt. Az. Time Alt. Az. Time Alt. Az.
01 Mar - 04:52:10 10° N 04:54:51 15° NNE 04:57:29 10° ENE daylight
01 Mar - 06:32:45 10° NW 06:37:32 90° E 06:42:14 10° SE daylight
01 Mar - 20:39:13 10° S 20:43:14 27° SE 20:47:16 10° ENE night (unlit)
01 Mar - 22:20:55 10° WSW 22:25:17 35° NW 22:29:42 10° NNE visible
02 Mar - 05:16:59 10° NNW 05:21:14 31° NE 05:25:26 10° ESE daylight
02 Mar - 06:59:10 10° WNW 07:03:21 31° SW 07:07:30 10° SSE daylight
02 Mar - 21:04:17 10° SW 21:09:02 79° SE 21:13:50 10° NE night (unlit)
02 Mar - 22:48:37 10° WNW 22:51:38 16° NNW 22:54:39 10° N visible
03 Mar - 04:02:11 10° N 04:04:35 14° NNE 04:06:58 10° ENE daylight
03 Mar - 05:42:33 10° NW 05:47:20 81° NE 05:52:03 10° SE daylight
03 Mar - 07:28:06 10° WSW 07:29:01 10° SW 07:29:56 10° SW daylight
03 Mar - 19:49:14 10° S 19:53:03 24° SE 19:56:55 10° ENE night (unlit)
03 Mar - 21:30:37 10° WSW 21:35:03 39° NW 21:39:33 10° NNE night (unlit)
04 Mar - 04:26:51 10° NNW 04:31:00 29° NE 04:35:07 10° E daylight
04 Mar - 06:08:51 10° WNW 06:13:11 35° SW 06:17:28 10° SSE daylight
04 Mar - 20:14:08 10° SW 20:18:50 71° SE 20:23:36 10° NE night (unlit)
04 Mar - 21:58:09 10° WNW 22:01:23 18° NNW 22:04:36 10° N night (unlit)
05 Mar - 03:12:13 10° N 03:14:18 13° NNE 03:16:25 10° NE daylight
05 Mar - 04:52:21 10° NW 04:57:08 73° NE 05:01:51 10° SE daylight
05 Mar - 06:37:01 10° WSW 06:38:51 12° SW 06:40:42 10° SSW daylight
05 Mar - 18:59:17 10° S 19:02:53 22° SE 19:06:31 10° ENE night (unlit)
05 Mar - 20:40:20 10° WSW 20:44:50 43° NW 20:49:24 10° NNE night (unlit)
06 Mar - 03:36:44 10° NNW 03:40:46 26° NE 03:44:47 10° E daylight
06 Mar - 05:18:33 10° WNW 05:23:01 39° SW 05:27:24 10° SSE daylight
06 Mar - 19:24:00 10° SSW 19:28:39 63° SE 19:33:22 10° NE night (unlit)
06 Mar - 21:07:44 10° W 21:11:07 19° NW 21:14:32 10° NNE night (unlit)
07 Mar - 02:22:18 10° N 02:24:02 12° NNE 02:25:46 10° NE daylight
07 Mar - 04:02:09 10° NW 04:06:55 65° NE 04:11:38 10° SE daylight
07 Mar - 05:46:18 10° W 05:48:42 14° SW 05:51:06 10° SSW daylight
07 Mar - 18:09:22 10° S 18:12:44 19° SE 18:16:06 10° E night (unlit)
07 Mar - 19:50:04 10° WSW 19:54:38 47° NW 19:59:15 10° NNE night (unlit)
08 Mar - 02:46:37 10° NNW 02:50:32 24° NE 02:54:25 10° E daylight
08 Mar - 04:28:16 10° WNW 04:32:50 44° SW 04:37:20 10° SSE daylight
08 Mar - 18:33:52 10° SSW 18:38:27 56° SE 18:43:07 10° NE night (unlit)
08 Mar - 20:17:20 10° W 20:20:52 21° NW 20:24:27 10° NNE night (unlit)
09 Mar - 01:32:31 10° NNE 01:33:45 11° NNE 01:35:00 10° NE daylight
09 Mar - 03:11:58 10° NW 03:16:43 58° NE 03:21:24 10° ESE daylight
09 Mar - 04:55:43 10° W 04:58:32 16° SW 05:01:21 10° SSW daylight
09 Mar - 17:19:31 10° SSE 17:22:34 17° SE 17:25:38 10° E night (unlit)
09 Mar - 18:59:49 10° WSW 19:04:25 52° NW 19:09:04 10° NE night (unlit)
10 Mar - 01:56:31 10° NNW 02:00:17 22° NE 02:04:02 10° E daylight
10 Mar - 03:38:00 10° WNW 03:42:38 50° SW 03:47:14 10° SSE daylight
10 Mar - 17:43:46 10° SSW 17:48:17 49° SE 17:52:52 10° ENE night (unlit)
10 Mar - 19:26:56 10° W 19:30:37 22° NW 19:34:21 10° NNE night (unlit)
